Weather in Adazi

Latvia     57°04′37″N   24°19′35″E
temp.,
°C
wind,
m/s
gust,
m/s
humid.,
%
clouds,
%
prec.,
mm/h
press.,
hPa
HPBL,
m
27 october, wed
wed2700:00+9sw41192100 2.1 1012698
03:00+9wsw4109458 2.1 1012628
06:00+8wsw4119329 0.0 1013551
09:00+7wsw4109331 0.0 1013496
12:00+10sw4117977 0.0 1014653
15:00+11ssw51182100 0.2 10121033
18:00+10ssw71690100 3.3 10091090
21:00+12wsw71691100 5.8 10071086
28 october, thu
thu2800:00+12w61391100 0.9 1009965
03:00+12w51192100 1.1 1010881
06:00+12w41092100 0.3 1012667
09:00+11nw389276 0.4 1016456
12:00+12nw248388 0.0 1018347
15:00+13wsw2375100 0.0 1019576
18:00+12s3788100 0.0 1020217
21:00+12ssw3894100 0.0 1021320
29 october, fri
fri2900:00+12ssw4887100 0.0 1022472
03:00+10ssw4109385 0.0 1022301
06:00+9ssw31093100 0.0 1022263
09:00+9s31093100 0.0 1022275
12:00+12s41180100 0.0 1022416
15:00+14s4117461 0.0 1021545
18:00+12s5128244 0.0 1020470
21:00+11s5158596 0.0 1020533
30 october, sat
sat3000:00+11s5158965 0.0 1019569
03:00+10s5149261 0.0 1019488
06:00+10sse51392100 0.0 1017451
09:00+9sse5148811 0.0 1017507
12:00+12s6147490 0.0 1016648
15:00+13s612665 0.0 1015747
18:00+12s513705 0.0 1015718
21:00+11s51369100 0.0 1016589
31 october, sun
sun3100:00+10s4116998 0.0 1016392
03:00+8s38766 0.0 1017234
05:00+7s388148 0.0 1017179
08:00+7sse39825 0.0 1017213
11:00+10s4967100 0.0 1016339
14:00+12sse41064100 0.0 1013464
17:00+10sse41271100 0.0 1011436
20:00+11sse51470100 0.0 1009533